Date String (YYYY-MM-DD hh:mm:ss) UTC,Instrument flags,absolute air pressure of the measurement (hPa),sample flow rate (lpm),inlet stack bypass flow (lpm),air temperature of the measurement (°C),ambient temperature measured by the external sensor (°C),aerosol sample conditioner tube jacket temperature (°C),OPC LED temperature (°C),internal box temperature (°C),relative humidity of the measurement (%),span deviation,mass concentration of particles derived from Lorenz-Mie calculation of OPC scattering (μg/m³),mass concentration of particles derived from Lorenz-Mie calculation of OPC scattering (μg/m³),mass concentration of particles derived from Lorenz-Mie calculation of OPC scattering (μg/m³)
DateTimeUTC,F1_M11,P_M11,Q1_M11,Q2_M11,T1_M11,T2_M11,T3_M11,T4_M11,T5_M11,U1_M11,ZSPAN_M11,X0_M11,X2_M11,X1_M11
2023-08-24 01:00:00,SystemResetWarning,0832.6,5.01,000.00,027.4,023.8,000.0,035.5,028.8,31.7,0000.9,0014.85,0007.24,0006.23
2023-08-24 01:01:00,SystemResetWarning,0832.6,5.01,000.00,027.3,023.8,000.0,035.5,028.8,32.3,0001.1,0014.71,0007.23,0006.26
2023-08-24 01:02:00,SystemResetWarning,0832.7,4.99,000.00,027.3,024.2,000.0,035.5,028.8,32.5,0001.6,0013.87,0007.23,0006.28
2023-08-24 01:03:00,SystemResetWarning,0832.7,5.00,000.00,027.3,024.6,000.0,035.6,028.9,32.7,0001.3,0013.29,0007.26,0006.31
2023-08-24 01:04:00,SystemResetWarning,0832.7,5.01,000.00,027.3,025.1,000.0,035.6,029.1,32.3,0001.3,0013.37,0007.29,0006.32
2023-08-24 01:05:00,SystemResetWarning,0832.7,5.00,000.00,027.3,025.5,000.0,035.6,029.2,32.1,0001.5,0012.58,0007.29,0006.34
2023-08-24 01:06:00,SystemResetWarning,0832.7,5.00,000.00,027.4,025.9,000.0,035.7,029.3,32.4,0001.3,0012.11,0007.23,0006.34
2023-08-24 01:07:00,SystemResetWarning,0832.7,5.01,000.00,027.5,026.1,000.0,035.7,029.3,32.3,0001.6,0012.11,0007.22,0006.36
2023-08-24 01:08:00,SystemResetWarning,0832.7,4.98,000.00,027.5,025.0,000.0,035.6,029.1,31.4,0001.8,0011.90,0007.22,0006.39
2023-08-24 01:09:00,SystemResetWarning,0832.7,5.01,000.00,027.4,023.8,000.0,035.5,028.8,30.5,0001.7,0011.79,0007.26,0006.40
2023-08-24 01:10:00,SystemResetWarning,0832.7,5.01,000.00,027.3,023.7,000.0,035.5,028.7,30.3,0001.8,0011.72,0007.25,0006.38
2023-08-24 01:11:00,SystemResetWarning,0832.7,5.00,000.00,027.2,024.0,000.0,035.5,028.7,30.6,0001.6,0011.46,0007.22,0006.37
2023-08-24 01:12:00,SystemResetWarning,0832.7,5.00,000.00,027.2,024.5,000.0,035.5,028.9,30.7,0001.7,0011.39,0007.20,0006.35
2023-08-24 01:13:00,SystemResetWarning,0832.8,5.01,000.00,027.3,024.9,000.0,035.6,029.0,30.6,0001.5,0011.39,0007.10,0006.31
2023-08-24 01:14:00,SystemResetWarning,0832.7,5.00,000.00,027.3,025.4,000.0,035.6,029.1,30.8,0001.4,0011.58,0007.00,0006.25
2023-08-24 01:15:00,SystemResetWarning,0832.8,4.99,000.00,027.4,025.8,000.0,035.7,029.2,30.6,0001.5,0011.62,0006.91,0006.20
2023-08-24 01:16:00,SystemResetWarning,0832.7,5.00,000.00,027.4,026.1,000.0,035.7,029.3,30.1,0001.3,0012.19,0006.81,0006.14
2023-08-24 01:17:00,SystemResetWarning,0832.8,5.00,000.00,027.5,025.9,000.0,035.7,029.3,30.0,0001.2,0012.09,0006.74,0006.08
2023-08-24 01:18:00,SystemResetWarning,0832.8,4.99,000.00,027.4,024.4,000.0,035.6,029.0,30.4,0000.8,0012.23,0006.72,0006.04
2023-08-24 01:19:00,SystemResetWarning,0832.8,5.01,000.00,027.3,023.6,000.0,035.5,028.7,30.8,0000.5,0012.92,0006.72,0006.01
2023-08-24 01:20:00,SystemResetWarning,0832.8,5.01,000.00,027.3,023.8,000.0,035.5,028.7,30.8,0000.3,0013.76,0006.70,0005.99
2023-08-24 01:21:00,SystemResetWarning,0832.8,5.00,000.00,027.2,024.2,000.0,035.5,028.8,30.1,-000.2,0014.41,0006.70,0005.98
2023-08-24 01:22:00,SystemResetWarning,0832.8,5.00,000.00,027.3,024.6,000.0,035.6,028.9,28.6,0000.1,0014.80,0006.69,0005.97
2023-08-24 01:23:00,SystemResetWarning,0832.8,5.00,000.00,027.3,025.1,000.0,035.6,029.0,28.3,-000.0,0015.30,0006.69,0005.97
2023-08-24 01:24:00,SystemResetWarning,0833.4,4.99,000.00,027.3,025.5,000.0,035.7,029.2,28.7,-000.0,0015.22,0006.71,0005.98
2023-08-24 01:25:00,SystemResetWarning,0833.0,4.99,000.00,027.4,025.9,000.0,035.7,029.2,30.4,0000.0,0014.83,0006.75,0006.00
2023-08-24 01:26:00,SystemResetWarning,0832.9,5.00,000.00,027.5,026.2,000.0,035.7,029.3,32.4,0000.4,0014.76,0006.82,0006.03
2023-08-24 01:27:00,SystemResetWarning,0832.9,4.99,000.00,027.5,025.4,000.0,035.6,029.2,32.5,0000.5,0014.16,0006.92,0006.07
2023-08-24 01:28:00,SystemResetWarning,0833.2,5.00,000.00,027.4,023.9,000.0,035.5,028.9,32.3,0000.6,0014.29,0006.98,0006.09
2023-08-24 01:29:00,SystemResetWarning,0833.4,5.00,000.00,027.3,023.6,000.0,035.5,028.7,30.7,0001.0,0014.15,0007.00,0006.11
2023-08-24 01:30:00,SystemResetWarning,0833.2,5.01,000.00,027.2,023.9,000.0,035.5,028.7,30.7,0001.2,0013.79,0007.00,0006.11
2023-08-24 01:31:00,SystemResetWarning,0833.1,4.99,000.00,027.2,024.3,000.0,035.6,028.8,30.2,0001.4,0013.06,0006.96,0006.09
2023-08-24 01:32:00,SystemResetWarning,0833.3,5.00,000.00,027.2,024.8,000.0,035.6,029.0,29.6,0001.3,0013.15,0006.96,0006.10
2023-08-24 01:33:00,SystemResetWarning,0833.2,5.01,000.00,027.3,025.2,000.0,035.6,029.1,29.7,0001.2,0013.06,0006.95,0006.09
2023-08-24 01:34:00,SystemResetWarning,0833.3,4.99,000.00,027.3,025.6,000.0,035.7,029.2,30.5,0001.6,0012.58,0006.93,0006.07
2023-08-24 01:35:00,SystemResetWarning,0833.0,4.99,000.00,027.4,025.9,000.0,035.7,029.3,30.4,0001.8,0012.91,0006.94,0006.06
2023-08-24 01:36:00,SystemResetWarning,0832.9,5.00,000.00,027.5,026.0,000.0,035.7,029.3,29.3,0002.2,0012.70,0006.90,0006.03
2023-08-24 01:37:00,SystemResetWarning,0832.9,4.99,000.00,027.4,024.6,000.0,035.6,029.0,29.6,0002.1,0012.82,0006.87,0006.00
2023-08-24 01:38:00,SystemResetWarning,0833.0,5.00,000.00,027.3,023.6,000.0,035.5,028.8,30.1,0001.8,0012.79,0006.78,0005.97
2023-08-24 01:39:00,SystemResetWarning,0833.2,5.01,000.00,027.3,023.6,000.0,035.5,028.7,30.4,0001.8,0013.18,0006.78,0005.96
2023-08-24 01:40:00,SystemResetWarning,0832.9,5.01,000.00,027.2,024.0,000.0,035.5,028.7,29.6,0001.9,0013.18,0006.73,0005.94
2023-08-24 01:41:00,SystemResetWarning,0833.0,5.00,000.00,027.2,024.5,000.0,035.6,028.9,29.6,0001.8,0012.96,0006.69,0005.92
2023-08-24 01:42:00,SystemResetWarning,0833.0,5.00,000.00,027.3,024.9,000.0,035.6,029.0,29.6,0002.0,0012.89,0006.70,0005.92
2023-08-24 01:43:00,SystemResetWarning,0833.0,4.99,000.00,027.3,025.4,000.0,035.6,029.1,28.8,0002.3,0012.21,0006.66,0005.90
2023-08-24 01:44:00,SystemResetWarning,0833.0,4.99,000.00,027.3,025.7,000.0,035.7,029.2,28.7,0002.2,0012.01,0006.67,0005.89
2023-08-24 01:45:00,SystemResetWarning,0833.0,5.00,000.00,027.4,026.1,000.0,035.7,029.3,28.6,0001.8,0011.91,0006.65,0005.88
2023-08-24 01:46:00,SystemResetWarning,0833.0,5.00,000.00,027.5,026.2,000.0,035.7,029.3,28.4,0001.6,0011.35,0006.58,0005.88
2023-08-24 01:47:00,SystemResetWarning,0833.0,5.00,000.00,027.5,025.0,000.0,035.6,029.0,28.6,0001.3,0011.57,0006.59,0005.87
2023-08-24 01:48:00,SystemResetWarning,0833.4,5.00,000.00,027.4,023.7,000.0,035.5,028.8,28.5,0001.4,0011.69,0006.56,0005.87
2023-08-24 01:49:00,SystemResetWarning,0833.0,5.01,000.00,027.3,023.6,000.0,035.5,028.7,28.1,0001.5,0011.59,0006.55,0005.87
2023-08-24 01:50:00,SystemResetWarning,0832.9,5.01,000.00,027.2,023.9,000.0,035.5,028.7,27.8,0001.4,0011.32,0006.52,0005.87
2023-08-24 01:51:00,SystemResetWarning,0833.2,5.00,000.00,027.2,024.4,000.0,035.6,028.8,27.8,0001.4,0011.61,0006.51,0005.87
2023-08-24 01:52:00,SystemResetWarning,0832.8,5.00,000.00,027.2,024.9,000.0,035.6,029.0,27.6,0001.1,0011.86,0006.51,0005.88
2023-08-24 01:53:00,SystemResetWarning,0833.2,4.99,000.00,027.3,025.3,000.0,035.6,029.1,27.7,0000.8,0012.06,0006.52,0005.89
2023-08-24 01:54:00,SystemResetWarning,0833.0,5.00,000.00,027.3,025.7,000.0,035.6,029.2,27.8,0000.9,0012.12,0006.50,0005.88
2023-08-24 01:55:00,SystemResetWarning,0833.0,5.00,000.00,027.4,026.0,000.0,035.7,029.3,27.5,0001.2,0012.04,0006.47,0005.87
2023-08-24 01:56:00,SystemResetWarning,0833.2,5.00,000.00,027.5,026.2,000.0,035.7,029.3,27.1,0001.4,0012.19,0006.51,0005.88
2023-08-24 01:57:00,SystemResetWarning,0832.8,4.98,000.00,027.5,025.2,000.0,035.6,029.1,27.0,0001.4,0012.98,0006.56,0005.88
2023-08-24 01:58:00,SystemResetWarning,0832.8,5.01,000.00,027.4,023.7,000.0,035.5,028.8,27.0,0001.8,0012.99,0006.56,0005.90
2023-08-24 01:59:00,SystemResetWarning,0832.8,5.01,000.00,027.3,023.5,000.0,035.5,028.7,27.8,0001.6,0013.38,0006.57,0005.91
